Regional Weather Roundup
Issued by NWS

Home | Current Version | Previous Version | Graphics & Text | Print | Product List | Glossary On
Versions: 1 2 3 4 5 6 7 8 9 10 11 12 13 14 15 16 17 18 19 20 21 22 23 24 25 26 27 28 29 30 31 32 33 34 35 36 37 38 39 40 41 42 43 44 45 46 47 48 49 50
000
ASUS43 KDMX 292007
RWRIA

WEATHER ROUNDUP FOR IOWA
NATIONAL WEATHER SERVICE DES MOINES IA
300 PM CDT SUN MAR 29 2015

NOTE: "FAIR" INDICATES FEW OR NO CLOUDS BELOW 12,000 FEET WITH NO
SIGNIFICANT WEATHER AND/OR OBSTRUCTIONS TO VISIBILITY.

* - THESE STATIONS ARE NOT NWS STATIONS...THUS NOT UNDER NWS
QUALITY CONTROL.  THEY ALSO DO NOT REPORT WEATHER SUCH
AS PRECIPITATION OR FOG.

IAZ001>003-012>014-020>022-031>034-043>046-292100-
   NORTHWEST IOWA

CITY           SKY/WX    TMP DP  RH WIND       PRES   REMARKS
CARROLL *      PTSUNNY   57  37  47 NW29G39   29.93F
CHEROKEE *     SUNNY     57  28  33 NW24G32   29.95S
DENISON *      PTSUNNY   55  37  50 NW23G31   29.96F
LE MARS *      SUNNY     59  30  33 NW24G35   29.98F
ORANGE CITY *  SUNNY     61  25  25 NW21G33   29.96S
SHELDON *      SUNNY     57  28  33 N28G44    29.94R
SIOUX CITY     SUNNY     61  30  31 NW28G36   29.98S
SPENCER        SUNNY     60  27  28 N32G40    29.91R
STORM LAKE *   SUNNY     57  30  35 NW29G39   29.94S
$$

IAZ055>058-069>071-079>083-090>094-292100-
   SOUTHWEST IOWA

CITY           SKY/WX    TMP DP  RH WIND       PRES   REMARKS
ATLANTIC *     MOSUNNY   55  39  54 NW24G37   29.99S
AUDUBON *      SUNNY     55  37  50 NW17G29   29.98F
CLARINDA *     PTSUNNY   57  39  51 NW26G38   30.02R
COUNCIL BLFS * MOSUNNY   57  39  51 N22G31    30.02S
CRESTON *      CLOUDY    54  39  58 NW31G43   29.96R
HARLAN  *      PTSUNNY   54  37  54 NW26G39   30.02F
LAMONI         CLOUDY    63  41  44 NW33G44   29.92S
RED OAK *      CLOUDY    55  39  54 NW26G35   30.01S
SHENANDOAH *   MOSUNNY   57  39  51 NW21G32   30.03R
$$

IAZ047>049-059>061-072>074-084-292100-
   CENTRAL IOWA

CITY           SKY/WX    TMP DP  RH WIND       PRES   REMARKS
AMES           PTSUNNY   57  38  48 NW29G36   29.87F
ANKENY *       PTSUNNY   55  41  58 NW25G33   29.89R
CHARITON *     CLOUDY    59  39  47 NW30G39   29.89S
DES MOINES     CLOUDY    56  39  53 NW26G40   29.91R
GRINNELL*      CLOUDY    57  41  54 W31G37    29.85R
KNOXVILLE *    PTSUNNY   57  41  54 NW33G41   29.86S
MARSHALLTOWN   CLOUDY    55  40  56 NW33G43   29.83R
PELLA *        PTSUNNY   57  45  62 NW30      29.87R
PERRY *        PTSUNNY   57  37  47 NW21G31   29.92S
$$

IAZ004>006-015-016-023>025-035-036-292100-
   NORTH CENTRAL IOWA

CITY           SKY/WX    TMP DP  RH WIND       PRES   REMARKS
ALGONA *       SUNNY     55  30  38 NW33G43   29.87R
CLARION *      MOSUNNY   55  39  54 NW32G41   29.85S
ESTHERVILLE    SUNNY     57  31  37 NW38G46   29.88R
FORT DODGE *   MOSUNNY   57  37  47 NW14G29   29.89S
MASON CITY     MOSUNNY   53  37  54 NW33G41   29.82R
FOREST CITY *  MOSUNNY   54  34  47 NW31G40   29.83R
IOWA FALLS *   PTSUNNY   55  39  54 NW31G39   29.86R
$$

IAZ007>011-017>019-026>030-037>042-050>054-066-292100-
   NORTHEAST IOWA

CITY           SKY/WX    TMP DP  RH WIND       PRES   REMARKS
CEDAR RAPIDS   CLOUDY    56  42  59 W18       29.77F
CHARLES CITY * CLOUDY    50  41  71 NW28G35   29.79R
CLINTON *      MOSUNNY   52  39  62 SW23G29   29.81F
DECORAH *      CLOUDY    43  37  81 NW17G33   29.74R
DUBUQUE        CLOUDY    47  41  80 SW13      29.72F
MONTICELLO *   CLOUDY    55  45  67 W16G22    29.74F
OELWEIN *      CLOUDY    52  41  66 NW30G43   29.77R
WATERLOO       PTSUNNY   52  40  63 NW20G35   29.80R
$$

IAZ064-065-067-068-078-292100-
   EAST CENTRAL IOWA

CITY           SKY/WX    TMP DP  RH WIND       PRES   REMARKS
DAVENPORT      PTSUNNY   53  40  61 SW23G35   29.80F
IOWA CITY      CLOUDY    57  41  55 W23G31    29.80F
MT. PLEASANT * PTSUNNY   54  41  62 SW18      29.86F
MUSCATINE *    PTSUNNY   61  41  48 SW18G25   29.81F
QUAD CITIES    MOSUNNY   54  39  57 SW18G24   29.81F
$$

IAZ062-063-075>077-085>089-095>099-292100-
   SOUTHEAST IOWA

CITY           SKY/WX    TMP DP  RH WIND       PRES   REMARKS
BURLINGTON     PTSUNNY   55  41  59 SW15G29   29.86F
FAIRFIELD *    CLOUDY    57  41  54 W17       29.85F
FORT MADISON * SUNNY     55  41  58 SW16G23   29.89S
KEOKUK *       SUNNY     57  41  54 W16G23    29.88F
OSKALOOSA *    CLOUDY    57  39  51 W22G35    29.85F
CENTERVILLE *  MOSUNNY   59  39  47 W22G29    29.90S
OTTUMWA        CLOUDY    58  39  49 W20G28    29.86S
WASHINGTON *   CLOUDY    59  43  55 W25       29.82F
$$

ABBREVIATIONS USED IN REMARKS
   TC - TEMPERATURES IN CELSIUS
  WCI - WIND CHILL INDEX
   HX - HEAT INDEX
  VSB - VISIBILITY
$$




USA.gov is the U.S. government's official web portal to all federal, state and local government web resources and services.